Location: Sternwarte Hubelmatt
(47.0367°N, 8.3053°E)
Time: 02:46:11
(UTC+02:00)

ISS - Visible Passes

Search period start: 21 May 2024 00:00
Search period end: 31 May 2024 00:00
Orbit: 409 x 414 km, 51.6° (Epoch: 20 May)

Date Brightness Start Highest point End Pass type
(mag) Time Alt. Az. Time Alt. Az. Time Alt. Az.
21 May -3.2 22:34:10 10° WNW 22:37:27 54° NNE 22:40:02 15° E visible
22 May -2.2 00:10:57 10° WNW 00:12:49 26° W 00:12:49 26° W visible
22 May -2.7 21:44:09 10° WNW 21:47:22 43° NNE 21:50:33 10° E visible
22 May -3.7 23:20:49 10° WNW 23:24:06 56° SSW 23:24:31 51° S visible
23 May -3.9 22:30:44 10° WNW 22:34:04 87° SSW 22:36:13 20° ESE visible
24 May -1.3 00:08:09 10° W 00:08:59 13° WSW 00:08:59 13° WSW visible
24 May -3.5 21:40:37 10° WNW 21:43:56 65° NNE 21:47:14 10° ESE visible
24 May -2.5 23:17:32 10° W 23:20:22 26° SW 23:20:39 26° SSW visible
25 May -3.1 22:27:10 10° WNW 22:30:19 42° SW 22:32:19 19° SSE visible
26 May -1.4 23:14:58 10° WSW 23:16:15 12° SW 23:16:44 12° SW visible
27 May -1.8 22:23:44 10° W 22:26:13 19° SW 22:28:23 11° S visible
